Location: ????????
(60.4333°N, 46.4710°E)
Time: 19:54:10
(UTC+00:00)

Cosmos 1933 - Pass Details

Date: 25 November 2020
Orbit: 546 x 563 km, 82.5° (Epoch: 16 January)

Event Time Altitude Azimuth Distance (km) Brightness Sun altitude
Rises 15:09:53 0° 187° (S) 2,728 7.0 -21.6°
Reaches altitude 10° 15:12:02 10° 185° (S) 1,841 6.1 -21.8°
Enters shadow 15:15:33 63° 158° (SSE) 630 3.4 -22.3°
